Weather History for KIBM - December, 2013

Change the Weather History Date:

Monday, December 16, 2013

  Actual Average (KSNY) Record (KSNY)
Temperature  
Mean Temperature 48 °F 28 °F  
Max Temperature 57 °F 41 °F 68 °F (1962)
Min Temperature 40 °F 16 °F -12 °F (1964)
Degree Days  
Heating Degree Days 16 37  
Month to date heating degree days 573  
Since 1 July heating degree days 1995  
Cooling Degree Days 0 0  
Month to date cooling degree days 0  
Year to date cooling degree days 830  
Moisture  
Dew Point 15 °F    
Average Humidity 28    
Maximum Humidity 39    
Minimum Humidity 16    
Precipitation  
Precipitation 0.00 in 0.02 in 0.13 in (1993)
Month to date precipitation 0.31  
Year to date precipitation 18.31  
Sea Level Pressure  
Sea Level Pressure 30.08 in    
Wind  
Wind Speed 22 mph (WNW)    
Max Wind Speed 39 mph    
Max Gust Speed 47 mph    
Visibility 10 miles    
Events      
T = Trace of Precipitation, MM = Missing Value Source: NWS Daily Summary

Daily Weather History Graph

Daily Weather History Graph

Search for Another Location

Airport or City:

Trip Planner

Search our weather history database for the weather conditions in past years. The results will help you decide how hot, cold, wet, or windy it might be!

Date:

Astronomy

Dec. 16, 2013 Rise Set
Actual Time 8:13 AM CST 5:27 PM CST
Civil Twilight 7:42 AM CST 5:58 PM CST
Nautical Twilight 7:08 AM CST 6:33 PM CST
Astronomical Twilight 6:34 AM CST 7:06 PM CST
Moon 5:19 PM CST (12/16) 7:23 AM CST (12/16)
Length of Visible Light 10h 15m
Length of Day
9h 13m
Full, 100% of the Moon is Illuminated
Dec 16
Full
Dec 17
Full
Dec 25
Last Quarter
Jan 1
New
Jan 7
First Quarter

Hourly Weather History & Observations

Time (CST) Temp. Windchill Dew Point Humidity Pressure Visibility Wind Dir Wind Speed Gust Speed Precip Events Conditions
12:15 AM 43.3 °F 34.7 °F 17.6 °F 36% 30.02 in 10.0 mi WNW 20.7 mph 26.5 mph N/A   Clear
12:35 AM 43.3 °F 34.5 °F 17.2 °F 35% 30.02 in 10.0 mi West 21.9 mph - N/A   Clear
12:55 AM 41.9 °F 33.7 °F 17.6 °F 38% 30.04 in 10.0 mi West 17.3 mph 24.2 mph N/A   Clear
1:15 AM 41.2 °F 33.0 °F 17.6 °F 39% 30.04 in 10.0 mi West 16.1 mph - N/A   Clear
1:35 AM 41.9 °F 33.4 °F 17.2 °F 37% 30.04 in 10.0 mi West 18.4 mph - N/A   Clear
1:55 AM 42.8 °F 34.0 °F 16.5 °F 35% 30.02 in 10.0 mi West 20.7 mph 27.6 mph N/A   Clear
2:15 AM 43.3 °F 34.0 °F 15.8 °F 33% 30.02 in 10.0 mi WNW 24.2 mph 31.1 mph N/A   Clear
2:35 AM 43.9 °F 35.0 °F 15.1 °F 31% 30.02 in 10.0 mi WNW 23.0 mph 27.6 mph N/A   Clear
2:55 AM 45.7 °F 36.0 °F 14.2 °F 28% 30.02 in 10.0 mi WNW 31.1 mph 41.4 mph N/A   Clear
3:15 AM 44.4 °F 35.7 °F 14.9 °F 30% 30.04 in 10.0 mi WNW 23.0 mph 35.7 mph N/A   Clear
3:35 AM 44.6 °F 35.5 °F 14.9 °F 30% 30.05 in 10.0 mi WNW 25.3 mph 35.7 mph N/A   Clear
3:55 AM 44.6 °F 35.3 °F 14.9 °F 30% 30.04 in 10.0 mi WNW 26.5 mph 33.4 mph N/A   Clear
4:15 AM 44.4 °F 35.1 °F 14.9 °F 30% 30.04 in 10.0 mi WNW 26.5 mph 33.4 mph N/A   Clear
4:35 AM 44.2 °F 35.0 °F 14.7 °F 30% 30.05 in 10.0 mi WNW 25.3 mph 34.5 mph N/A   Clear
4:55 AM 44.1 °F 35.0 °F 14.5 °F 30% 30.05 in 10.0 mi WNW 24.2 mph 29.9 mph N/A   Clear
5:15 AM 43.5 °F 35.0 °F 14.9 °F 32% 30.05 in 10.0 mi WNW 20.7 mph 27.6 mph N/A   Clear
5:35 AM 41.5 °F 33.8 °F 15.8 °F 35% 30.05 in 10.0 mi West 15.0 mph - N/A   Clear
5:55 AM 40.6 °F 32.0 °F 16.7 °F 38% 30.05 in 10.0 mi WNW 17.3 mph - N/A   Clear
6:15 AM 40.5 °F 31.8 °F 16.7 °F 38% 30.05 in 10.0 mi WNW 17.3 mph - N/A   Clear
6:35 AM 41.2 °F 33.0 °F 16.7 °F 37% 30.06 in 10.0 mi WNW 16.1 mph 24.2 mph N/A   Clear
6:55 AM 41.9 °F 33.7 °F 16.7 °F 36% 30.06 in 10.0 mi WNW 17.3 mph 26.5 mph N/A   Clear
7:15 AM 43.0 °F 34.8 °F 16.7 °F 35% 30.06 in 10.0 mi WNW 18.4 mph 25.3 mph N/A   Clear
7:35 AM 43.0 °F 34.8 °F 16.7 °F 35% 30.06 in 10.0 mi WNW 18.4 mph 23.0 mph N/A   Clear
7:55 AM 42.6 °F 34.6 °F 17.1 °F 36% 30.06 in 10.0 mi WNW 17.3 mph - N/A   Clear
8:15 AM 43.5 °F 35.8 °F 16.5 °F 34% 30.07 in 10.0 mi WNW 17.3 mph 24.2 mph N/A   Clear
8:35 AM 43.2 °F 35.6 °F 16.7 °F 35% 30.07 in 10.0 mi West 16.1 mph 19.6 mph N/A   Clear
8:55 AM 44.6 °F 37.2 °F 16.5 °F 32% 30.08 in 10.0 mi WNW 17.3 mph 26.5 mph N/A   Clear
9:15 AM 44.4 °F 37.2 °F 16.7 °F 33% 30.08 in 10.0 mi WNW 16.1 mph 24.2 mph N/A   Clear
9:35 AM 46.4 °F 38.7 °F 17.2 °F 31% 30.08 in 10.0 mi WNW 20.7 mph 25.3 mph N/A   Clear
9:55 AM 48.9 °F - 16.2 °F 27% 30.08 in 10.0 mi WNW 28.8 mph 35.7 mph N/A   Clear
10:15 AM 50.2 °F - 15.6 °F 25% 30.08 in 10.0 mi WNW 29.9 mph 40.3 mph N/A   Clear
10:35 AM 51.1 °F - 15.8 °F 25% 30.09 in 10.0 mi WNW 32.2 mph 41.4 mph N/A   Clear
10:55 AM 51.8 °F - 15.8 °F 24% 30.09 in 10.0 mi WNW 32.2 mph 39.1 mph N/A   Clear
11:15 AM 52.2 °F - 15.6 °F 24% 30.09 in 10.0 mi WNW 38.0 mph 43.7 mph N/A   Clear
11:35 AM 53.2 °F - 15.8 °F 23% 30.09 in 10.0 mi WNW 34.5 mph 43.7 mph N/A   Clear
11:55 AM 53.6 °F - 15.8 °F 22% 30.08 in 10.0 mi WNW 34.5 mph 43.7 mph N/A   Clear
12:15 PM 54.5 °F - 15.3 °F 21% 30.08 in 10.0 mi WNW 29.9 mph 41.4 mph N/A   Clear
12:35 PM 55.4 °F - 14.7 °F 20% 30.06 in 10.0 mi WNW 31.1 mph 40.3 mph N/A   Clear
12:55 PM 56.3 °F - 13.3 °F 18% 30.05 in 10.0 mi WNW 27.6 mph 41.4 mph N/A   Clear
1:15 PM 56.7 °F - 11.5 °F 17% 30.04 in 10.0 mi WNW 28.8 mph 39.1 mph N/A   Clear
1:35 PM 57.0 °F - 11.7 °F 17% 30.04 in 10.0 mi WNW 39.1 mph 44.9 mph N/A   Clear
1:55 PM 56.8 °F - 11.3 °F 16% 30.04 in 7.0 mi WNW 38.0 mph 47.2 mph N/A   Clear
2:15 PM 56.7 °F - 11.3 °F 17% 30.05 in 10.0 mi WNW 31.1 mph 44.9 mph N/A   Clear
2:35 PM 56.8 °F - 11.5 °F 17% 30.05 in 10.0 mi WNW 29.9 mph 43.7 mph N/A   Clear
2:55 PM 57.0 °F - 12.2 °F 17% 30.06 in 10.0 mi NW 29.9 mph 43.7 mph N/A   Clear
3:15 PM 56.3 °F - 11.8 °F 17% 30.06 in 10.0 mi NW 25.3 mph 39.1 mph N/A   Clear
3:35 PM 55.8 °F - 12.6 °F 18% 30.07 in 10.0 mi NW 23.0 mph 34.5 mph N/A   Clear
3:55 PM 55.4 °F - 11.3 °F 17% 30.07 in 10.0 mi WNW 29.9 mph 39.1 mph N/A   Clear
4:15 PM 54.3 °F - 10.6 °F 18% 30.08 in 10.0 mi WNW 25.3 mph 36.8 mph N/A   Clear
4:35 PM 53.1 °F - 10.9 °F 19% 30.08 in 10.0 mi WNW 28.8 mph 35.7 mph N/A   Clear
4:55 PM 51.3 °F - 12.0 °F 21% 30.09 in 10.0 mi NW 23.0 mph 34.5 mph N/A   Clear
5:15 PM 49.5 °F - 13.1 °F 23% 30.10 in 10.0 mi NW 20.7 mph 27.6 mph N/A   Clear
5:35 PM 48.4 °F - 13.6 °F 25% 30.11 in 10.0 mi WNW 21.9 mph - N/A   Clear
5:55 PM 48.0 °F - 13.5 °F 25% 30.11 in 10.0 mi WNW 23.0 mph 31.1 mph N/A   Clear
6:15 PM 46.9 °F - 13.8 °F 26% 30.11 in 10.0 mi WNW 24.2 mph 31.1 mph N/A   Clear
6:35 PM 46.4 °F 38.7 °F 13.8 °F 27% 30.12 in 10.0 mi WNW 20.7 mph - N/A   Clear
6:55 PM 45.9 °F 37.8 °F 13.6 °F 27% 30.13 in 10.0 mi WNW 21.9 mph 27.6 mph N/A   Clear
7:15 PM 45.5 °F 37.6 °F 13.6 °F 28% 30.13 in 10.0 mi WNW 20.7 mph 29.9 mph N/A   Clear
7:35 PM 45.7 °F 37.8 °F 13.1 °F 27% 30.14 in 10.0 mi WNW 20.7 mph 29.9 mph N/A   Clear
7:55 PM 45.7 °F 37.4 °F 13.1 °F 27% 30.15 in 10.0 mi WNW 23.0 mph 28.8 mph N/A   Clear
8:15 PM 44.6 °F 36.9 °F 13.5 °F 28% 30.15 in 10.0 mi WNW 18.4 mph 25.3 mph N/A   Clear
8:35 PM 44.6 °F 36.9 °F 13.5 °F 28% 30.16 in 10.0 mi WNW 18.4 mph - N/A   Clear
8:55 PM 44.1 °F 36.5 °F 13.5 °F 29% 30.16 in 10.0 mi WNW 17.3 mph - N/A   Clear
9:15 PM 43.9 °F 35.9 °F 14.0 °F 30% 30.16 in 10.0 mi WNW 18.4 mph - N/A   Clear
9:35 PM 43.7 °F 36.0 °F 14.0 °F 30% 30.17 in 10.0 mi WNW 17.3 mph - N/A   Clear
9:55 PM 42.6 °F 35.2 °F 14.4 °F 32% 30.17 in 10.0 mi WNW 15.0 mph - N/A   Clear
10:15 PM 41.7 °F 34.8 °F 14.7 °F 34% 30.17 in 10.0 mi WNW 12.7 mph - N/A   Clear
10:35 PM 41.0 °F 33.9 °F 14.9 °F 35% 30.17 in 10.0 mi West 12.7 mph - N/A   Clear
10:55 PM 41.2 °F 33.4 °F 14.9 °F 34% 30.18 in 10.0 mi West 15.0 mph - N/A   Clear
11:15 PM 41.9 °F 35.0 °F 14.5 °F 33% 30.19 in 10.0 mi West 12.7 mph 21.9 mph N/A   Clear
11:35 PM 40.6 °F 33.4 °F 15.3 °F 36% 30.19 in 10.0 mi West 12.7 mph - N/A   Clear
11:55 PM 41.2 °F 33.4 °F 14.9 °F 34% 30.20 in 10.0 mi West 15.0 mph - N/A   Clear